This demonstration page uses our WeatherBlox Daily Observations layout. Learn more.

36.17497, -115.13722

Hourly Observations for October 14, 2019

Temp ( °F °C ) Dew Point ( °F °C ) Humidity (%) Winds ( mph kmh ) Pressure ( in mb ) Visibility ( mi km ) Precip ( " mm )
12:53 am 00:53 Clear 58 14.4 22 -5.6 25 25 NNW 6 9 29.87 1012 10 16.0934 0 0
1:53 am 01:53 Clear 57 13.9 20 -6.7 24 24 NNW 7 11 29.88 1012 10 16.0934 0 0
2:53 am 02:53 Clear 55 12.8 21 -6.1 26 26 NW 6 9 29.88 1012 10 16.0934 0 0
3:53 am 03:53 Clear 55 12.8 21 -6.1 26 26 WNW 3 6 29.87 1012 10 16.0934 0 0
4:53 am 04:53 Clear 55 12.8 22 -5.6 28 28 Calm 29.89 1012 10 16.0934 0 0
5:53 am 05:53 Clear 55 12.8 23 -5 29 29 W 3 6 29.91 1013 10 16.0934 0 0
6:53 am 06:53 Sunny 58 14.4 19 -7.2 22 22 WNW 10 17 29.92 1013 10 16.0934 0 0
7:53 am 07:53 Sunny 58 14.4 26 -3.3 29 29 Calm 29.95 1014 10 16.0934 0 0
8:53 am 08:53 Sunny 63 17.2 20 -6.7 19 19 Calm 29.97 1015 10 16.0934 0 0
9:53 am 09:53 Sunny 67 19.4 19 -7.2 16 16 Calm 29.98 1015 10 16.0934 0 0
10:53 am 10:53 Sunny 71 21.7 18 -7.8 13 13 SE 3 6 29.98 1015 10 16.0934 0 0
11:53 am 11:53 Sunny 75 23.9 16 -8.9 10 10 E 6 9 29.97 1015 10 16.0934 0 0
12:53 pm 12:53 Sunny 76 24.4 23 -5 14 14 ENE 5 7 29.95 1014 10 16.0934 0 0
1:53 pm 13:53 Sunny 77 25 31 -0.6 18 18 VRB 3 6 29.93 1014 10 16.0934 0 0
2:53 pm 14:53 Sunny 78 25.6 29 -1.7 16 16 undefined N/A 29.92 1013 10 16.0934 0 0
3:53 pm 15:53 Sunny 79 26.1 27 -2.8 15 15 E 3 6 29.92 1013 10 16.0934 0 0
4:53 pm 16:53 Sunny 80 26.7 27 -2.8 14 14 ENE 3 6 29.92 1013 10 16.0934 0 0
5:53 pm 17:53 Sunny 78 25.6 26 -3.3 15 15 Calm 29.92 1013 10 16.0934 0 0
6:53 pm 18:53 Clear 75 23.9 28 -2.2 18 18 WNW 3 6 29.94 1014 10 16.0934 0 0
7:53 pm 19:53 Clear 71 21.7 30 -1.1 22 22 WNW 7 11 29.96 1015 10 16.0934 0 0
8:53 pm 20:53 Clear 67 19.4 30 -1.1 25 25 NW 7 11 29.98 1015 10 16.0934 0 0
9:53 pm 21:53 Clear 66 18.9 28 -2.2 24 24 WNW 8 13 29.99 1016 10 16.0934 0 0
10:53 pm 22:53 Clear 65 18.3 28 -2.2 25 25 W 6 9 30 1016 10 16.0934 0 0
11:53 pm 23:53 Clear 61 16.1 29 -1.7 30 30 W 5 7 30.01 1016 10 16.0934 0 0

Powered by AerisWeather